Вернуться в каталог

ONEWEB-0458

АктивенСвязьPO
NORAD 51648·PAYLOAD·🇬🇧 United Kingdom

Запущен Feb 10, 2022 с Guiana Space Centre

Loading…

Ближайшие Пролёты (ближайшие 24 часа)

TLE

СвежийSource: CelesTrak SupGP

Эпоха: Sep 14, 2026, 09:09 UTC

1 51648C 22012AC  26257.38141618 -.00178540  00000+0 -50211+0 0  2576
2 51648  87.8903  18.4972 0002044 103.0107 334.9116 13.11907985    16

Отслеживайте ONEWEB-0458 в реальном времени с AllMySat

Download on the App Store